Regional Weather Roundup
Issued by NWS Goodland, KS

Home | Current Version | Previous Version | Text Only | Print | Product List | Glossary On
Versions: 1 2 3 4 5 6 7 8 9 10 11 12 13 14 15 16 17 18 19 20 21 22 23 24 25 26 27 28 29 30 31 32 33 34 35 36 37 38 39 40 41 42 43 44 45 46 47 48 49 50
000
ASUS43 KGLD 231108
RWRGLD

GOODLAND FORECAST AREA HOURLY WEATHER ROUNDUP
NATIONAL WEATHER SERVICE GOODLAND KS
500 AM MDT SAT AUG 23 2014

...OFFICIAL OBSERVATIONS...

CITY           SKY/WX    TMP DP  RH WIND       PRES   REMARKS
GOODLAND KS    MOCLDY    64  64 100 W5        29.91F
HILL CITY KS   CLOUDY    68  66  93 VRB5      29.85F
IMPERIAL NEB   CLOUDY    66  64  93 CALM      29.90F
MCCOOK NEB     PTCLDY    65  64  97 W8        29.87F
AKRON CO       CLOUDY    61  60  97 S5        29.95F
BURLINGTON CO  MOCLDY    63  61  93 SW3       29.92F
LIMON CO       CLOUDY    57  57 100 CALM      30.00F
$$

...UNOFFICIAL OBSERVATIONS...

CITY           SKY/WX    TMP DP  RH WIND       PRES   REMARKS
COLBY KS       PTCLDY    64  64 100 W7        29.88F FOG
NORTON KS      CLEAR     68  64  88 E5        29.84S
SHARON SPRINGS   N/A     64  63  96 CALM        N/A
WAKEENEY KS      N/A     69  63  82 MISG        N/A
KIT CARSON CO    N/A     62  60  92 MISG        N/A
YUMA CO          N/A     63  63 100 CALM        N/A
$$



USA.gov is the U.S. government's official web portal to all federal, state and local government web resources and services.